Powrót do katalogu

ONEWEB-0619

AktywnyŁącznośćPO
NORAD 55160·PAYLOAD·🇬🇧 United Kingdom

Wystrzelony Jan 10, 2023 z Cape Canaveral Space Force Station

Loading…

Następne Przeloty (najbliższe 24 godziny)

TLE

ŚwieżeSource: CelesTrak SupGP

Epoka: Sep 14, 2026, 21:06 UTC

1 55160C 23004W   26257.87933287 -.00001378  00000+0 -35537-2 0  2577
2 55160  87.9215 348.0450 0002284 105.0773   7.0528 13.17653433    13

Śledź ONEWEB-0619 w czasie rzeczywistym z AllMySat

Download on the App Store